Starlink 31977

operational
NORAD ID: 59892 Int'l Des: 2024-100 Owner: SPXS Country: US Constellation: starlink
LEOCIRCULAR

Über Starlink 31977

Beschreibung wird geladen...

Live-Position

3D-Globus wird geladen...

Nächste Überflüge

Höhenverlauf

Altitude vs Time

uPlot chart will show altitude changes over time

Zweizeiliger Elementsatz

1 59892U 24100H 25260.04391214 -.00002431 00000-0 -78832-4 0 9993
2 59892 43.0028 18.8222 0000836 279.4511 80.6246 15.27581311 74686
Epoch: 17. Sept. 2025 • Age: 26 hours

Aktueller Status

Höhe 484.6 km
Geschwindigkeit 7.63 km/s
Subsatellitenpunkt 32.71°N, 111.48°E
Startdatum 28. Mai 2024
Alter 1.3 years
Typ internet

Technische Details

Klassifizierung Payload
Masse 730.00 kg
Trockenmasse 700.00 kg
Gesamtmasse 730.00 kg
Länge 0.30 m
Durchmesser 4.10 m
Spannweite 29.00 m
Form Box + pan
Hersteller SPXS
Bus-Typ Starlink V2M
Phasenstatus In Orbit
Besitzer/Staat SPXS/US

Große Konstellationen

Loading constellations...